Wind_Speed
45 43 43 44 48 49 50 46 38 42 45 47 48 48 49 49 49 36 38 39 38 36 36 37 38 39 39 40 41 43 45 47 46 45 45 48 49 49 48 46 41 38 38
49 43 44 46 47 49 34 35 38 41 41 42 45 50 50 47 46 40 39 36 36 37 39 40 40 41 42 43 43 44 46 46 47 46 47 50 51 49 48 46 43 41 41
50 49 48 49 50 37 38 41 41 39 39 40 39 39 42 45 45 38 38 37 39 41 41 43 44 44 45 45 44 45 46 47 47 47 49 51 52 50 48 46 44 44 44
50 51 50 50 47 40 44 45 44 42 41 41 40 39 38 40 40 39 40 42 44 44 45 47 48 49 47 46 45 46 47 48 48 49 51 52 53 51 48 47 44 44 45
61 55 52 52 53 50 48 48 46 46 47 44 43 42 41 42 43 45 48 51 52 51 52 52 51 50 48 47 48 48 48 48 50 52 52 52 55 52 50 48 46 47 46
65 63 60 59 55 56 56 57 54 51 51 49 46 47 47 48 50 54 57 57 57 56 54 53 52 50 50 49 50 50 49 50 51 53 51 51 56 51 49 48 47 45 44
64 65 64 65 64 61 60 62 61 58 57 57 57 57 55 54 55 57 58 58 57 56 56 55 53 52 52 51 51 50 50 52 53 53 50 52 54 53 51 51 50 47 46
63 64 68 69 67 65 64 64 64 67 67 65 63 62 60 59 59 60 60 60 60 60 58 56 55 53 54 53 51 51 52 54 55 52 49 54 55 54 51 51 53 50 48
64 65 67 70 72 72 69 68 68 68 68 67 66 65 63 60 60 61 62 61 59 58 57 56 55 55 54 52 53 54 55 59 62 51 50 53 53 53 51 51 53 53 52
68 67 68 68 68 71 73 74 72 71 69 68 66 64 63 62 60 58 56 57 56 54 52 54 56 56 55 55 56 59 65 66 63 52 50 51 52 52 53 53 54 55 55
70 67 66 66 66 68 68 69 73 73 73 72 69 66 66 66 64 62 58 57 56 55 55 56 58 59 59 60 66 68 69 67 62 50 50 51 53 53 54 55 55 54 53
74 72 66 64 64 64 64 67 72 70 71 72 72 71 69 66 66 65 63 62 64 65 63 62 61 63 64 67 69 71 69 67 58 50 52 53 54 55 55 55 52 52 55
68 67 67 65 62 63 67 67 64 66 69 72 71 70 70 68 67 67 67 68 67 64 62 64 65 66 68 71 71 68 67 61 59 54 51 54 54 56 56 54 52 52 55
66 67 67 69 71 68 68 70 70 70 69 67 67 66 67 69 70 72 69 68 67 69 71 71 70 71 73 70 66 67 63 60 59 52 51 55 56 56 55 52 51 53 56
64 66 69 71 72 69 71 70 67 64 65 64 63 63 65 70 73 72 71 72 72 72 71 71 72 73 70 66 67 65 63 62 58 51 53 55 57 55 54 51 52 55 56
64 68 72 72 70 69 68 68 70 69 66 64 64 65 66 69 70 73 74 74 73 69 71 70 68 65 62 64 68 63 62 62 57 53 55 55 57 57 55 53 55 57 58
64 66 69 68 64 64 67 68 68 69 69 68 66 65 69 69 70 70 72 74 68 70 67 66 62 61 63 64 60 63 65 65 58 57 56 58 57 57 57 57 58 58 59
61 64 67 69 69 69 70 72 72 71 69 67 66 66 70 72 75 72 69 69 63 65 67 70 66 65 64 63 64 68 68 64 60 58 58 57 57 60 60 61 60 60 60
62 67 71 71 72 77 77 77 75 71 67 70 73 69 70 75 68 61 64 69 70 70 67 59 62 60 63 67 69 68 68 64 58 58 57 56 60 62 63 63 62 62 61
65 71 74 76 77 76 81 81 84 83 74 65 62 62 61 61 62 62 67 68 66 67 59 62 66 67 67 70 69 67 64 58 57 57 57 60 62 63 64 64 64 64 65
73 74 72 67 65 72 62 62 62 63 69 64 57 58 60 63 63 63 62 62 59 63 67 66 69 66 69 68 66 62 57 57 56 58 62 64 65 66 67 67 68 69 71
67 61 65 51 53 46 53 59 61 63 58 57 57 60 61 63 64 68 66 60 57 65 69 68 66 66 65 64 61 58 57 56 60 65 66 67 69 70 71 72 73 74 75
67 64 56 55 55 54 55 56 57 56 55 55 56 57 59 61 61 64 66 68 71 69 69 66 63 63 63 61 59 56 57 63 68 68 69 71 73 74 73 75 77 79 80
66 64 60 56 55 55 56 59 61 59 58 57 59 61 63 65 67 67 67 66 65 64 61 62 62 62 62 61 58 61 67 70 70 72 73 75 77 76 77 78 81 82 81
70 64 62 60 59 58 58 58 58 58 57 58 63 63 65 66 67 65 64 64 64 64 64 62 62 62 62 63 68 72 73 74 75 76 78 79 80 80 81 82 82 80 79
60 62 59 60 60 60 61 62 62 61 60 61 64 67 71 71 70 69 67 66 65 64 64 65 65 67 70 73 75 77 78 78 79 80 81 81 82 82 81 80 78 76 75
Wind_Direction
258 263 262 255 249 247 251 254 257 264 266 267 267 264 261 262 265 259 265 263 263 268 273 277 281 285 290 295 299 301 304 304 304 298 297 300 304 308 310 306 297 295 293
257 259 260 254 249 253 251 259 260 261 264 267 267 267 262 257 263 259 261 262 267 270 273 278 280 286 291 294 295 298 300 300 299 297 297 300 305 308 308 305 299 293 289
250 255 258 258 253 249 253 256 257 258 263 267 269 267 265 257 258 259 259 265 269 271 276 278 281 286 288 291 292 296 297 296 296 295 296 298 301 305 305 301 301 298 292
248 252 255 257 259 253 255 254 255 257 263 268 270 269 271 265 261 260 262 266 270 274 278 281 283 284 285 289 290 293 295 294 294 293 294 297 301 304 303 301 298 297 296
252 250 251 250 254 254 253 259 257 258 260 264 267 269 269 269 269 268 266 267 270 275 278 278 280 281 285 285 287 290 293 294 292 292 295 298 300 302 300 299 296 297 298
254 252 251 252 249 250 251 252 256 260 260 260 262 266 268 268 267 264 263 266 270 273 275 278 280 281 282 283 286 289 290 291 291 291 294 295 298 300 300 297 297 296 295
253 254 253 252 251 251 250 251 253 254 254 257 258 259 261 262 264 264 266 269 271 274 277 278 278 279 280 282 285 286 288 290 289 289 290 291 296 297 296 295 295 295 293
250 252 252 252 253 253 253 252 251 252 254 255 258 260 261 261 262 265 268 271 274 275 275 275 277 278 280 282 282 285 287 287 283 286 288 291 295 295 294 294 294 293 290
252 252 253 251 252 255 257 257 256 257 257 258 260 261 262 263 264 266 269 271 271 272 273 276 277 279 280 280 283 285 285 283 285 282 285 289 292 292 292 291 291 290 292
254 255 255 256 255 254 256 258 258 258 257 258 260 261 261 262 263 265 266 267 269 273 276 277 279 281 281 281 283 282 284 285 286 279 284 287 289 289 290 291 292 293 294
251 256 258 260 261 261 259 260 259 259 260 261 265 269 269 268 268 268 268 271 274 276 279 279 280 279 280 280 281 283 284 286 284 275 282 284 283 285 287 289 292 295 296
254 255 258 260 261 262 264 262 261 264 265 267 269 270 271 272 273 271 271 272 275 278 281 281 281 277 277 278 282 281 287 287 277 276 279 282 282 284 287 291 293 296 296
251 254 257 259 260 260 261 263 265 265 265 265 266 268 268 268 268 271 275 276 277 278 277 276 275 275 276 277 283 288 286 281 277 275 281 282 282 284 288 291 293 294 296
254 255 257 258 259 258 259 260 263 265 268 269 269 269 270 271 272 275 275 273 272 275 276 276 276 277 278 283 284 283 280 278 276 276 278 279 281 284 287 291 295 296 297
266 265 265 266 267 262 259 259 258 259 261 263 264 265 266 268 270 270 270 272 273 272 275 277 279 278 279 282 282 279 278 278 276 274 277 278 279 285 288 292 294 294 295
267 268 269 272 272 269 261 257 257 257 257 259 261 264 266 268 269 271 271 274 275 272 277 280 278 277 279 279 279 276 276 275 270 271 274 276 280 284 286 289 290 292 294
265 266 268 269 268 267 259 256 256 258 257 258 261 263 265 266 268 269 271 273 272 274 274 272 274 274 276 276 276 277 274 272 268 271 274 277 281 283 286 287 289 292 294
261 260 259 257 258 259 254 253 253 255 258 258 258 259 261 264 266 267 267 270 263 273 277 277 275 273 276 273 278 278 275 271 270 272 275 279 282 283 285 287 290 292 295
259 255 252 252 252 252 253 252 252 254 257 258 257 257 260 261 263 266 264 269 278 281 279 276 273 275 275 274 277 274 273 270 271 274 277 280 280 283 286 288 291 294 298
253 252 255 253 255 255 252 252 249 255 255 255 256 257 261 265 268 268 267 272 275 278 277 274 273 274 273 275 274 273 270 270 274 278 279 278 281 283 286 289 292 295 298
251 255 259 255 251 253 252 251 250 252 255 250 250 256 261 263 265 268 272 275 278 279 272 271 274 271 274 274 271 267 269 274 279 278 277 279 281 284 287 290 292 295 297
258 257 253 256 253 252 254 252 253 252 251 252 255 259 263 266 266 266 269 270 269 272 270 272 274 277 271 267 266 267 273 277 275 275 277 280 282 284 287 290 292 294 296
254 256 259 255 257 255 255 257 255 254 256 256 256 257 258 261 262 263 264 266 268 268 268 270 270 268 266 265 267 272 274 272 273 275 278 280 281 284 286 288 290 291 293
259 257 262 263 261 259 258 259 258 259 257 259 259 258 257 258 260 260 260 262 264 264 264 266 266 265 265 267 271 270 268 271 273 276 277 279 280 283 284 286 288 290 292
264 260 257 259 261 262 262 262 260 257 257 259 260 258 257 258 259 260 261 262 263 263 263 263 265 267 269 270 267 268 270 272 274 276 278 279 281 282 284 285 287 290 291
255 256 254 254 255 257 258 259 260 260 258 257 256 257 255 255 257 258 262 262 262 263 265 266 267 267 266 267 268 270 272 274 276 277 279 280 281 282 284 286 287 289 289
Height
5737 5738 5739 5741 5742 5744 5745 5749 5753 5755 5755 5756 5756 5756 5757 5759 5759 5760 5763 5763 5763 5762 5761 5760 5760 5758 5757 5754 5751 5748 5746 5742 5741 5738 5735 5730 5726 5721 5717 5712 5709 5706 5702
5726 5726 5729 5730 5731 5732 5734 5738 5741 5743 5743 5744 5744 5743 5745 5748 5750 5751 5752 5753 5753 5753 5752 5751 5750 5748 5747 5744 5741 5738 5735 5732 5729 5727 5725 5720 5716 5712 5707 5702 5698 5693 5690
5715 5716 5718 5721 5722 5723 5726 5728 5729 5730 5732 5731 5732 5732 5734 5737 5737 5740 5742 5743 5743 5743 5741 5741 5740 5738 5736 5733 5730 5728 5724 5720 5717 5717 5714 5710 5706 5701 5696 5691 5688 5684 5680
5704 5707 5709 5710 5711 5713 5715 5716 5717 5719 5720 5722 5722 5723 5723 5725 5728 5730 5731 5731 5731 5731 5730 5729 5727 5725 5723 5720 5718 5716 5712 5709 5706 5705 5702 5700 5695 5691 5686 5682 5677 5673 5668
5690 5695 5698 5699 5701 5702 5705 5707 5707 5708 5709 5711 5712 5713 5714 5715 5716 5718 5718 5718 5718 5718 5717 5715 5714 5712 5711 5708 5706 5703 5700 5698 5695 5693 5691 5689 5684 5680 5676 5672 5668 5663 5659
5675 5680 5684 5686 5686 5690 5692 5693 5695 5697 5697 5698 5700 5701 5702 5703 5703 5703 5703 5703 5704 5703 5703 5702 5701 5700 5697 5695 5693 5690 5688 5686 5684 5681 5679 5676 5672 5668 5663 5661 5658 5653 5648
5662 5666 5668 5670 5671 5673 5675 5679 5681 5682 5684 5686 5687 5688 5689 5689 5689 5689 5690 5690 5690 5690 5690 5689 5688 5686 5684 5682 5679 5677 5675 5673 5670 5667 5665 5663 5659 5655 5651 5648 5645 5641 5637
5648 5650 5650 5651 5656 5658 5660 5663 5665 5667 5669 5670 5671 5672 5673 5675 5675 5676 5676 5676 5676 5676 5675 5674 5673 5672 5670 5668 5666 5663 5661 5659 5655 5652 5650 5649 5646 5642 5638 5635 5633 5629 5625
5633 5632 5632 5634 5640 5644 5647 5648 5649 5651 5653 5655 5656 5657 5659 5660 5660 5661 5661 5662 5661 5661 5661 5660 5659 5658 5657 5654 5652 5650 5647 5643 5639 5637 5636 5634 5632 5628 5624 5621 5618 5615 5612
5611 5613 5616 5619 5622 5627 5629 5632 5635 5635 5637 5638 5640 5642 5643 5644 5644 5644 5645 5645 5646 5647 5646 5646 5645 5644 5642 5639 5637 5634 5630 5627 5624 5622 5620 5618 5616 5613 5610 5607 5605 5602 5599
5595 5598 5602 5605 5608 5611 5613 5617 5619 5621 5622 5623 5626 5628 5630 5630 5630 5631 5631 5631 5632 5632 5632 5631 5629 5627 5626 5623 5620 5617 5613 5611 5608 5605 5604 5602 5599 5597 5594 5592 5588 5586 5584
5580 5584 5586 5589 5592 5594 5596 5600 5602 5603 5606 5608 5610 5611 5612 5613 5614 5615 5615 5615 5615 5615 5614 5612 5611 5609 5607 5605 5602 5598 5597 5595 5592 5590 5588 5586 5584 5581 5579 5576 5573 5570 5568
5562 5566 5568 5570 5572 5576 5580 5582 5583 5586 5587 5590 5591 5592 5594 5595 5595 5597 5598 5596 5596 5597 5595 5594 5592 5591 5589 5587 5585 5583 5581 5579 5577 5574 5572 5571 5568 5566 5562 5560 5557 5554 5551
5544 5547 5549 5552 5555 5556 5559 5563 5565 5568 5569 5572 5573 5575 5575 5575 5577 5578 5578 5578 5577 5578 5577 5575 5574 5573 5572 5571 5568 5566 5564 5562 5561 5558 5556 5555 5553 5550 5546 5543 5542 5538 5534
5523 5526 5530 5532 5534 5536 5538 5541 5544 5548 5550 5552 5554 5555 5556 5557 5558 5557 5559 5560 5560 5559 5558 5557 5556 5555 5554 5553 5552 5550 5548 5546 5543 5541 5540 5539 5537 5533 5531 5528 5525 5522 5517
5505 5508 5510 5511 5514 5516 5518 5520 5523 5527 5530 5533 5535 5536 5537 5537 5539 5539 5540 5541 5540 5539 5540 5540 5539 5538 5537 5534 5534 5532 5530 5529 5526 5524 5523 5520 5519 5517 5515 5511 5508 5504 5501
5487 5490 5492 5494 5496 5497 5499 5501 5504 5507 5510 5513 5515 5516 5516 5518 5518 5518 5521 5521 5520 5521 5522 5522 5521 5520 5518 5518 5516 5515 5512 5511 5509 5507 5506 5505 5502 5501 5498 5495 5491 5488 5483
5466 5470 5473 5476 5477 5478 5479 5481 5483 5486 5489 5492 5495 5496 5496 5497 5498 5498 5499 5501 5502 5505 5505 5503 5501 5501 5501 5500 5498 5497 5495 5493 5492 5491 5490 5488 5486 5484 5481 5479 5475 5471 5466
5447 5450 5453 5455 5455 5456 5459 5461 5465 5467 5469 5472 5474 5476 5477 5476 5477 5478 5479 5482 5485 5485 5485 5483 5482 5482 5482 5480 5479 5478 5477 5476 5475 5474 5474 5472 5469 5467 5465 5462 5458 5454 5449
5428 5430 5432 5433 5435 5435 5437 5440 5444 5447 5449 5451 5453 5454 5455 5456 5458 5460 5463 5463 5464 5464 5464 5464 5463 5463 5462 5461 5461 5460 5459 5459 5458 5459 5457 5453 5452 5450 5447 5444 5440 5436 5431
5410 5410 5412 5412 5414 5416 5417 5419 5422 5425 5428 5430 5432 5434 5435 5437 5439 5440 5442 5443 5443 5444 5445 5444 5444 5443 5443 5442 5441 5441 5441 5441 5442 5440 5437 5435 5434 5432 5429 5425 5421 5416 5411
5390 5390 5391 5391 5394 5395 5399 5402 5403 5406 5407 5410 5411 5413 5415 5417 5419 5421 5422 5423 5423 5423 5424 5424 5423 5423 5423 5423 5423 5423 5423 5424 5421 5418 5417 5416 5415 5413 5409 5406 5402 5397 5392
5369 5370 5371 5373 5375 5377 5379 5382 5384 5386 5388 5389 5390 5393 5395 5397 5398 5399 5400 5401 5401 5401 5402 5402 5402 5403 5404 5404 5404 5405 5404 5401 5399 5399 5398 5396 5394 5391 5388 5384 5381 5377 5372
5347 5348 5349 5351 5354 5356 5358 5361 5363 5365 5367 5369 5370 5372 5373 5375 5376 5376 5377 5378 5379 5380 5381 5383 5383 5383 5384 5384 5385 5383 5379 5378 5378 5378 5377 5375 5373 5369 5366 5362 5359 5354 5350
5326 5328 5328 5331 5333 5335 5337 5339 5342 5344 5346 5348 5350 5351 5352 5353 5354 5355 5357 5358 5359 5360 5361 5363 5363 5364 5364 5364 5361 5358 5357 5357 5356 5355 5354 5352 5350 5347 5343 5340 5336 5332 5327
5306 5308 5309 5310 5312 5314 5316 5318 5320 5322 5324 5325 5327 5329 5330 5331 5332 5333 5334 5335 5336 5338 5339 5340 5341 5341 5339 5338 5337 5337 5336 5335 5334 5333 5331 5329 5326 5323 5320 5317 5314 5310 5306